Temperature
16 16 16 17 19 20 20 20 20 19 19 18 17 18 20 20 20 19 14 14 14 14 14 14 14 15 15 15 15 15 15 15 15 15 15 15 15 15 15 15 15 15 15 15 15 15 15 15 15
15 16 16 18 20 20 20 20 19 19 18 16 16 17 18 17 15 14 14 14 14 14 14 14 14 14 14 15 15 15 15 15 15 15 15 15 15 15 15 15 15 15 15 15 15 15 14 14 14
15 16 17 19 19 20 20 19 19 17 16 16 17 16 17 16 13 13 13 14 13 14 14 14 14 14 14 14 14 15 15 15 15 15 15 15 15 15 15 15 15 15 14 14 14 14 14 14 14
15 16 17 19 19 19 19 19 17 17 16 15 16 17 14 13 12 13 13 13 13 13 14 14 14 14 14 14 14 14 14 14 15 15 15 15 15 15 15 15 15 14 14 14 14 14 14 14 14
15 17 18 18 18 18 18 17 16 17 17 16 16 17 15 12 13 13 13 13 13 13 13 13 13 13 14 14 14 14 14 14 14 14 14 14 14 14 14 14 14 14 14 14 14 14 14 14 14
15 17 18 18 18 17 17 15 15 17 16 15 15 16 14 12 12 12 12 12 12 13 13 13 13 13 13 13 14 14 14 14 14 14 14 14 14 14 14 14 14 14 14 14 14 14 14 14 14
16 17 18 18 17 16 16 15 16 16 16 15 14 16 14 12 12 12 12 12 12 12 12 13 13 13 13 13 13 14 14 14 14 14 14 14 14 14 14 14 14 14 14 14 14 13 13 13 13
14 16 16 16 16 16 15 14 14 14 15 13 13 15 14 11 11 12 12 12 12 12 12 12 12 13 13 13 13 13 13 13 14 14 13 14 13 13 13 13 13 13 13 13 13 13 13 13 13
13 16 16 16 16 15 14 13 12 12 12 11 11 12 11 11 11 11 11 11 11 12 12 12 12 12 12 13 13 13 13 13 13 13 13 13 13 13 13 13 13 13 13 13 13 13 13 13 13
13 15 15 14 15 14 13 13 12 12 13 12 11 10 10 10 10 10 11 11 11 11 11 12 12 12 12 12 12 12 12 13 13 13 13 13 13 13 13 13 13 13 13 13 13 12 12 12 12
13 14 13 12 12 12 12 12 11 12 13 12 12 10 10 10 10 10 10 10 10 11 11 11 12 12 12 12 12 12 12 12 12 12 12 12 12 12 12 12 12 12 12 12 12 12 12 12 12
12 11 11 11 10 11 11 11 11 11 12 10 10 10 10 10 10 10 10 10 10 10 10 11 11 11 11 11 11 11 11 11 12 12 12 12 12 12 12 12 12 12 12 12 12 12 12 12 11
11 11 10 9 9 9 10 10 11 10 9 9 9 9 9 9 9 9 9 10 10 10 10 10 11 11 11 11 11 11 11 11 11 11 11 11 11 12 12 12 11 11 11 11 11 11 11 11 11
10 10 10 9 9 9 10 10 10 10 9 9 9 9 9 9 9 9 9 9 9 9 10 10 10 10 10 10 11 11 11 11 11 10 11 11 11 11 11 11 11 11 11 11 11 11 11 11 11
9 10 10 10 10 9 10 11 10 9 9 9 9 8 8 8 8 8 9 9 9 9 9 10 10 10 10 10 10 10 10 10 10 10 10 10 10 11 11 11 11 11 11 10 11 10 10 10 10
10 11 11 10 9 9 10 12 11 8 8 9 9 8 8 8 8 8 8 8 9 9 9 9 9 9 9 9 10 10 10 10 10 10 10 10 10 10 10 10 10 10 10 10 10 10 10 10 10
11 11 11 10 9 9 10 11 10 8 8 8 8 8 8 7 7 8 8 8 8 9 9 9 9 9 9 9 9 9 9 9 9 9 9 9 10 10 10 10 10 10 10 10 10 10 9 9 9
11 11 11 10 9 9 9 10 10 8 8 8 8 8 7 7 7 7 8 8 8 8 8 8 8 8 8 8 8 9 9 9 9 9 9 9 9 9 9 9 9 9 9 9 9 9 9 9 9
10 10 10 10 8 8 9 10 10 9 8 8 8 7 7 7 6 7 7 7 7 8 8 8 8 8 8 8 8 8 8 8 8 9 9 9 9 9 9 9 9 9 9 9 9 9 9 8 8
9 9 10 9 8 8 9 9 10 9 8 8 8 7 7 6 6 6 7 7 7 7 7 7 7 7 7 8 7 8 8 7 8 8 8 8 8 8 9 9 8 8 8 9 9 9 8 8 8
8 9 9 8 8 8 8 10 10 9 8 7 7 7 7 6 6 6 6 6 6 6 7 7 7 7 7 7 7 7 7 7 7 8 8 8 8 8 8 8 8 8 8 8 8 8 8 8 8
8 8 7 7 8 9 8 10 11 9 8 7 7 6 6 6 5 5 5 6 6 6 6 7 7 7 7 7 7 7 7 7 7 7 7 8 8 8 8 8 8 8 8 7 8 8 8 8 7
8 7 7 7 7 8 8 8 10 8 8 8 7 6 6 5 5 5 5 5 6 6 6 6 6 6 6 6 6 6 6 6 6 7 7 7 7 7 7 7 7 7 7 7 7 7 7 7 7
6 6 6 6 7 7 8 8 10 9 8 8 7 6 5 4 4 4 4 5 5 5 6 6 6 6 6 6 6 6 6 6 6 6 6 6 7 7 7 7 7 7 7 7 7 7 7 7 6
6 7 7 7 7 8 7 7 8 8 7 6 6 5 4 4 4 4 4 4 4 5 5 5 5 5 5 5 5 6 6 6 6 6 6 6 6 6 6 6 6 6 6 6 6 6 6 6 6
6 7 8 8 9 9 6 7 8 6 5 5 4 4 4 3 3 3 3 4 4 4 4 5 5 5 5 5 5 5 5 5 5 5 6 6 6 6 6 6 6 6 6 6 6 6 6 6 6
6 6 6 6 5 6 7 7 7 6 5 5 4 4 3 3 3 3 3 3 3 4 4 4 4 4 4 4 5 5 5 5 5 5 5 5 5 5 6 6 6 5 5 5 5 5 5 5 5
5 5 5 6 6 7 8 7 8 6 6 5 4 4 3 3 3 3 3 3 3 3 3 4 4 4 4 4 4 4 4 4 5 5 5 5 5 5 5 5 5 5 5 5 4 4 4 4 4
4 4 5 5 6 7 8 8 7 6 6 5 4 3 3 2 3 3 3 3 3 3 3 3 3 3 3 3 4 4 4 4 4 4 5 5 5 5 5 5 5 4 4 4 4 4 4 4 4
4 5 4 5 4 5 7 8 6 5 4 4 3 3 2 2 2 2 2 2 2 2 2 2 2 3 3 3 3 3 3 4 4 4 4 4 4 4 4 4 4 4 4 4 4 3 3 3 3
Wind_Speed
4 2 2 3 4 4 8 5 4 4 3 1 1 2 2 1 1 1 3 3 2 3 4 5 4 4 4 4 4 5 6 6 6 6 6 6 6 6 6 7 7 7 7 8 9 10 10 10 11
2 1 3 3 6 8 8 6 6 4 1 1 2 2 2 1 2 3 2 2 2 3 4 4 5 4 4 3 3 5 5 5 6 6 6 6 6 6 6 6 6 7 7 8 9 10 10 11 10
1 1 3 4 6 9 7 5 5 3 2 2 2 1 1 1 2 2 2 1 2 3 4 5 4 4 4 3 3 4 4 5 5 5 5 5 6 6 6 6 6 7 7 8 9 9 10 10 9
2 3 2 5 8 7 5 3 3 4 3 1 2 3 2 2 2 2 2 2 3 3 3 4 3 3 3 4 3 4 4 4 4 4 5 5 5 6 6 6 6 7 7 8 8 9 9 9 9
2 3 5 6 9 6 4 2 3 3 3 2 3 2 3 2 3 3 2 2 3 3 3 3 3 3 3 3 3 4 4 4 3 3 4 4 5 5 5 6 6 6 7 7 7 8 8 8 8
3 3 7 10 10 6 5 3 4 4 3 2 2 3 2 3 3 3 2 2 2 2 2 2 3 3 3 3 3 4 4 3 3 3 4 4 4 4 4 5 6 6 6 6 7 7 7 7 7
3 4 7 9 8 7 5 3 5 5 5 3 2 3 3 1 2 1 2 2 2 2 2 2 2 2 2 3 2 4 4 3 3 3 4 4 3 3 4 5 6 6 6 6 6 6 7 7 7
1 3 5 8 9 7 2 2 1 4 4 1 2 3 2 0 0 1 2 2 2 2 1 1 1 1 1 1 2 3 3 3 3 3 3 4 4 3 4 4 5 6 6 6 6 6 6 6 6
2 5 8 8 8 5 3 3 1 2 2 2 2 2 2 2 2 3 2 1 1 1 1 1 1 1 0 1 2 3 3 3 3 3 3 3 3 3 3 3 5 5 5 5 6 5 5 6 6
3 7 8 5 4 3 4 3 2 3 4 4 3 1 1 3 3 3 3 2 1 1 1 1 1 0 0 1 2 2 2 2 2 1 2 2 2 2 2 4 5 5 5 5 5 5 5 4 4
3 5 4 3 2 2 3 3 3 4 5 5 5 4 2 3 3 3 3 2 2 2 2 2 1 0 0 0 1 1 1 1 1 1 1 2 2 2 2 2 3 4 4 4 4 4 3 3 3
3 2 2 2 2 3 4 4 4 6 5 3 3 3 3 4 3 3 3 3 2 2 2 2 1 0 0 1 1 1 1 1 1 1 1 2 1 1 2 2 1 2 2 3 3 2 3 3 3
3 2 2 2 2 2 3 5 5 7 5 3 2 3 4 4 4 3 3 3 2 2 2 2 2 1 1 1 1 1 1 1 2 2 2 2 1 2 1 2 1 2 2 2 2 2 2 3 3
2 2 2 2 2 3 5 6 5 6 4 4 4 4 4 5 5 4 4 3 3 3 2 2 2 2 2 2 2 2 2 2 2 2 2 2 2 1 1 2 1 1 2 2 2 2 2 2 2
3 2 2 3 3 3 4 7 7 6 5 5 4 4 4 4 4 4 4 4 4 3 2 2 2 2 2 3 2 2 2 2 2 2 3 3 2 2 2 2 1 1 2 2 2 2 1 2 2
3 4 4 2 2 2 5 8 3 3 4 5 5 4 4 4 4 4 4 4 3 3 2 2 2 2 3 3 3 2 3 3 2 3 3 3 3 3 2 2 2 1 2 2 2 2 2 2 2
4 5 6 3 2 2 5 7 3 2 4 5 4 4 4 4 4 4 4 4 3 3 3 2 2 3 3 3 3 3 2 3 2 3 3 3 4 4 3 2 2 2 2 2 2 2 2 2 2
5 5 5 6 2 4 8 10 6 5 5 6 5 4 4 4 4 4 4 4 3 3 3 3 2 2 2 2 2 2 2 2 2 2 3 3 4 3 2 2 2 3 3 2 3 3 2 2 2
4 5 7 5 3 5 9 12 9 6 6 6 6 5 5 5 5 3 3 3 2 3 3 3 3 3 2 2 3 3 3 3 2 2 3 4 4 4 3 2 2 2 3 4 4 3 4 2 2
5 6 6 4 2 4 8 12 9 6 6 6 6 6 6 6 5 4 3 3 3 3 3 3 3 3 3 3 3 3 3 2 3 2 3 3 4 4 3 3 3 2 2 3 4 4 2 2 2
6 7 6 4 3 4 6 7 6 3 5 5 5 5 5 5 5 4 4 3 4 4 4 3 4 4 4 3 2 2 2 2 2 3 3 4 4 5 4 4 3 3 2 3 4 5 3 3 2
7 4 5 4 4 4 3 6 5 3 3 3 4 4 5 4 4 4 4 4 4 4 4 4 4 4 4 3 3 4 4 4 4 3 3 3 4 5 4 4 4 4 3 4 5 4 4 5 3
3 2 3 5 5 5 5 6 5 1 4 4 4 3 4 4 4 4 4 4 4 4 3 3 4 4 4 4 4 4 5 4 3 3 4 3 3 4 4 4 4 4 4 4 5 5 5 4 4
2 2 1 2 4 6 7 7 5 3 3 3 3 3 4 4 4 4 4 4 4 4 3 3 3 4 4 4 5 6 6 5 4 4 4 3 3 4 4 5 4 4 4 4 5 5 6 5 5
3 3 2 3 4 5 3 6 6 3 3 4 4 4 4 4 4 4 4 4 4 4 4 4 4 4 4 5 6 6 7 6 6 6 5 5 4 4 5 5 5 4 4 4 4 5 5 5 5
7 6 4 4 5 3 3 6 4 2 3 3 3 3 3 4 4 4 3 3 4 4 4 4 4 5 5 5 6 6 6 5 5 6 5 5 5 5 5 5 5 4 4 4 4 4 5 5 5
6 6 3 1 2 4 5 5 5 3 2 2 2 2 3 4 4 4 4 3 4 4 4 4 4 4 5 5 5 5 6 6 6 6 6 5 5 4 5 5 4 4 4 4 4 4 5 5 5
3 5 3 4 4 6 5 6 4 4 4 3 3 3 3 4 4 4 4 4 4 4 4 4 4 4 4 4 5 4 5 5 5 5 6 6 5 5 5 5 5 5 5 5 4 4 4 5 5
5 5 4 4 4 5 6 4 2 4 3 3 3 3 3 4 4 4 4 4 4 4 4 4 4 5 4 4 4 4 4 5 5 5 6 5 5 6 5 6 5 5 5 5 5 4 5 5 5
5 7 7 6 5 5 6 5 1 2 2 3 3 3 4 4 4 4 4 4 4 4 4 4 5 5 5 5 4 4 4 4 4 4 5 5 5 5 5 5 5 5 5 5 5 5 5 5 5
Wind_Direction
312 293 222 209 207 217 225 208 199 175 179 199 220 222 206 208 269 68 52 56 71 119 129 133 109 101 106 109 115 121 120 114 111 110 108 113 110 104 98 99 101 102 100 99 99 96 92 92 90
310 251 207 211 224 221 222 209 200 192 147 140 174 195 190 167 41 64 67 48 89 112 123 122 107 99 102 103 110 128 128 125 120 117 115 113 114 111 103 98 97 103 103 102 99 97 95 92 90
221 248 205 199 221 230 218 195 195 178 168 196 179 187 222 107 79 68 44 105 111 111 116 110 97 96 95 103 109 122 124 129 127 124 124 117 117 113 108 98 92 100 104 103 103 100 97 95 93
206 181 197 219 219 228 227 175 153 171 184 210 199 157 127 58 26 33 73 122 120 112 108 106 91 92 91 95 103 126 122 119 126 130 127 125 116 115 108 101 93 93 102 105 105 104 101 100 101
207 196 199 214 227 227 219 198 176 195 184 179 200 181 145 78 33 63 99 119 119 111 98 106 87 87 93 92 93 115 121 118 120 125 125 123 121 111 116 111 103 96 96 104 107 106 105 103 102
180 202 215 221 220 221 219 208 204 208 199 179 202 198 149 95 50 68 93 108 102 108 102 104 89 77 80 80 99 107 104 106 111 116 120 117 124 118 119 120 114 108 102 102 107 111 112 108 105
201 204 224 224 220 222 222 210 215 223 220 215 231 214 176 133 37 69 110 109 94 95 95 91 112 106 87 63 95 106 100 94 98 106 116 118 120 130 120 119 118 115 110 104 105 112 116 114 110
228 198 212 218 221 226 207 185 202 235 230 237 238 228 210 175 42 133 124 112 102 88 77 63 84 105 134 103 102 102 100 97 99 98 105 121 124 127 129 119 123 120 117 116 110 112 117 120 114
216 214 221 219 219 205 163 187 200 246 202 220 233 303 349 122 154 148 141 129 109 64 34 33 39 67 100 124 131 122 116 103 107 109 104 123 145 149 152 118 119 121 118 119 112 115 119 125 119
205 221 227 225 225 205 185 201 206 207 214 231 232 311 63 139 160 168 176 189 213 265 320 331 350 13 36 127 150 154 146 136 121 114 129 152 154 153 156 136 119 126 125 124 116 119 125 132 130
200 220 212 219 222 212 205 205 204 216 233 238 240 226 193 185 190 199 207 215 234 257 289 298 312 345 35 134 158 142 149 151 151 121 152 168 157 147 136 140 129 136 137 128 121 131 132 130 129
197 215 225 225 214 218 221 217 222 234 256 286 266 221 203 204 214 220 225 229 240 262 283 298 287 247 215 186 167 161 158 168 167 169 172 168 155 149 145 141 146 144 136 128 131 127 136 136 139
211 215 243 251 223 227 231 237 248 249 257 258 232 213 224 229 238 244 245 242 248 262 279 299 288 243 200 177 179 186 193 207 189 181 188 185 173 164 158 150 165 153 146 148 145 143 137 138 137
188 194 226 257 235 239 239 252 246 250 243 232 219 221 228 237 245 246 248 247 252 262 266 280 276 251 202 199 196 203 207 215 208 189 189 189 192 169 173 158 152 162 164 162 162 156 153 145 135
172 210 240 249 251 247 246 250 237 243 227 232 236 239 237 240 245 245 248 252 253 256 262 260 272 264 225 211 206 209 212 214 207 202 200 192 200 190 179 171 157 168 173 167 161 145 144 136 139
196 216 233 230 247 239 238 254 224 212 223 242 252 254 252 250 250 256 259 259 260 256 255 259 262 253 236 228 216 214 220 220 215 210 207 204 205 197 184 180 162 150 160 167 167 157 147 140 140
203 229 240 238 220 231 233 261 254 236 241 250 258 263 259 261 267 271 271 268 262 257 253 247 249 247 236 244 220 215 221 226 223 216 209 212 206 197 187 184 168 163 154 170 173 164 156 158 137
217 231 240 242 238 244 245 258 261 252 255 258 261 264 266 270 278 282 280 274 270 269 264 251 240 237 226 228 221 209 218 226 228 221 211 211 204 195 183 185 181 172 171 165 172 161 148 155 133
222 229 249 256 268 255 255 265 267 258 256 257 256 263 271 279 291 297 299 285 278 275 272 262 249 234 216 224 229 223 224 226 227 233 221 209 205 198 183 179 188 192 189 177 170 155 155 151 138
221 238 253 265 250 263 272 273 268 247 242 250 255 262 269 280 291 300 304 308 289 276 266 263 257 240 226 227 237 238 233 239 238 233 234 216 206 203 200 195 191 197 200 180 170 150 160 170 174
236 236 245 263 294 249 282 267 244 234 244 259 265 268 272 272 276 286 288 288 290 287 275 264 263 249 230 223 222 218 215 224 226 231 235 229 214 206 205 205 197 193 193 190 185 176 170 175 195
234 234 241 249 262 259 272 275 255 240 266 273 276 277 280 283 283 286 284 285 285 284 285 274 262 255 236 216 213 213 220 229 235 230 228 234 221 214 208 207 206 200 198 199 193 191 188 180 191
226 224 229 241 243 261 239 253 265 250 270 282 289 292 297 300 297 289 285 283 287 292 293 285 271 263 247 229 220 221 231 238 240 228 227 231 221 219 220 212 211 203 203 205 199 194 192 191 197
151 136 136 198 222 246 233 231 266 232 260 295 309 311 318 321 318 309 301 302 306 314 316 302 285 276 264 247 235 226 230 231 233 234 227 232 228 220 222 222 214 207 209 207 203 192 193 197 202
183 178 211 216 221 239 183 228 253 271 283 291 306 315 323 332 332 326 316 308 310 315 317 305 293 284 278 264 248 238 235 231 230 235 231 229 229 226 219 218 216 210 211 210 204 192 197 203 204
202 205 213 237 250 253 205 236 253 329 313 300 306 312 327 342 343 333 316 306 311 316 313 303 295 287 284 274 262 249 241 235 231 230 231 233 234 227 220 214 214 208 203 205 207 199 203 207 209
191 207 245 243 265 252 237 253 275 278 275 294 321 331 338 348 345 338 332 327 323 321 314 303 296 291 287 278 266 254 243 238 234 230 227 234 237 228 213 206 200 196 195 202 204 209 205 207 210
214 177 174 199 228 252 250 247 248 234 255 273 303 320 333 344 343 342 340 332 326 324 317 311 308 299 292 287 276 263 253 245 239 231 224 228 232 225 212 198 194 193 193 196 197 203 205 204 209
175 185 197 202 239 246 259 250 219 229 248 253 273 292 310 325 335 337 337 334 334 336 334 329 324 319 309 303 295 277 262 252 244 234 225 223 222 213 211 201 192 195 195 193 196 202 202 208 208
212 204 193 207 222 236 256 261 120 226 261 268 278 286 300 310 323 328 332 335 339 340 337 334 330 328 323 315 305 292 275 258 248 240 230 224 219 211 206 198 194 197 198 199 201 200 206 211 212
Height
1519 1520 1522 1524 1523 1520 1518 1518 1518 1522 1523 1526 1526 1526 1524 1524 1526 1531 1531 1528 1528 1529 1530 1531 1532 1533 1533 1534 1535 1535 1535 1536 1536 1536 1536 1536 1537 1537 1537 1537 1537 1538 1538 1538 1538 1537 1537 1537 1537
1519 1520 1523 1524 1518 1517 1516 1516 1520 1521 1524 1526 1527 1526 1526 1527 1529 1529 1527 1527 1528 1530 1530 1531 1531 1532 1533 1534 1534 1535 1535 1536 1536 1536 1536 1537 1537 1537 1537 1538 1538 1538 1538 1538 1538 1538 1538 1537 1537
1519 1520 1523 1519 1516 1513 1514 1517 1519 1523 1526 1526 1526 1527 1527 1528 1529 1528 1528 1528 1529 1530 1530 1531 1531 1532 1533 1534 1534 1535 1535 1536 1536 1536 1536 1537 1537 1537 1537 1538 1538 1538 1538 1538 1538 1538 1538 1538 1538
1519 1522 1522 1518 1515 1514 1514 1518 1522 1523 1525 1526 1526 1526 1528 1528 1528 1528 1527 1528 1529 1530 1531 1531 1531 1532 1532 1533 1533 1534 1535 1535 1535 1536 1536 1536 1537 1537 1537 1538 1538 1538 1538 1538 1538 1538 1538 1538 1538
1519 1520 1518 1517 1516 1516 1518 1521 1523 1522 1523 1525 1526 1525 1527 1527 1526 1526 1527 1528 1529 1530 1530 1531 1531 1531 1532 1532 1533 1533 1534 1534 1535 1535 1536 1536 1536 1537 1537 1537 1537 1538 1538 1538 1538 1538 1538 1538 1538
1520 1517 1514 1513 1514 1517 1519 1523 1523 1523 1524 1526 1526 1525 1526 1527 1526 1526 1527 1528 1528 1529 1530 1530 1530 1531 1531 1532 1532 1532 1533 1533 1534 1534 1535 1535 1536 1536 1537 1537 1537 1537 1537 1537 1538 1538 1538 1538 1538
1519 1515 1512 1511 1514 1516 1519 1522 1522 1522 1523 1525 1526 1525 1526 1526 1525 1526 1526 1527 1528 1528 1529 1529 1530 1530 1530 1531 1531 1531 1532 1532 1533 1533 1534 1534 1535 1535 1535 1536 1536 1537 1537 1537 1537 1538 1538 1538 1538
1518 1517 1514 1513 1514 1515 1521 1523 1523 1524 1523 1526 1526 1525 1525 1525 1524 1525 1526 1527 1527 1528 1528 1528 1529 1529 1529 1530 1530 1530 1531 1531 1532 1532 1533 1533 1534 1534 1534 1535 1535 1536 1536 1536 1536 1537 1537 1537 1537
1518 1517 1512 1512 1513 1516 1520 1522 1523 1524 1524 1525 1525 1525 1525 1523 1523 1524 1525 1526 1526 1527 1527 1527 1527 1528 1528 1528 1529 1529 1529 1530 1530 1531 1531 1532 1532 1533 1533 1534 1534 1535 1535 1535 1536 1536 1536 1537 1537
1517 1513 1511 1514 1516 1517 1520 1521 1522 1523 1522 1523 1523 1523 1523 1522 1523 1523 1524 1524 1524 1525 1525 1526 1526 1526 1526 1527 1527 1527 1528 1528 1529 1529 1530 1530 1531 1531 1532 1532 1532 1533 1534 1534 1535 1535 1535 1536 1536
1516 1514 1516 1518 1519 1519 1520 1521 1522 1522 1520 1521 1521 1521 1521 1522 1522 1522 1523 1523 1523 1523 1523 1524 1524 1524 1524 1525 1525 1526 1526 1526 1527 1528 1528 1529 1529 1530 1530 1530 1531 1532 1532 1533 1533 1534 1534 1535 1535
1517 1518 1518 1519 1520 1520 1520 1521 1521 1521 1520 1520 1520 1520 1520 1520 1520 1521 1521 1521 1521 1521 1521 1522 1522 1522 1522 1523 1523 1524 1524 1525 1525 1526 1526 1527 1527 1528 1528 1528 1529 1530 1530 1531 1532 1532 1533 1533 1534
1517 1518 1519 1519 1520 1520 1520 1520 1520 1518 1519 1518 1518 1518 1518 1518 1519 1519 1519 1519 1519 1519 1519 1520 1520 1520 1520 1520 1521 1522 1522 1523 1523 1524 1524 1525 1525 1526 1526 1526 1527 1527 1528 1529 1530 1531 1531 1532 1532
1517 1518 1519 1519 1519 1519 1519 1518 1519 1516 1516 1516 1516 1516 1516 1517 1517 1517 1517 1517 1517 1517 1517 1517 1518 1518 1518 1518 1519 1519 1520 1520 1521 1522 1522 1523 1523 1524 1524 1524 1525 1525 1526 1527 1528 1529 1529 1530 1530
1518 1518 1517 1518 1518 1518 1518 1514 1514 1514 1514 1514 1514 1514 1514 1514 1514 1514 1514 1514 1515 1515 1515 1515 1515 1515 1515 1516 1517 1517 1518 1518 1519 1519 1520 1520 1521 1522 1522 1522 1522 1523 1524 1525 1526 1527 1528 1528 1529
1516 1514 1512 1515 1517 1517 1518 1507 1510 1512 1512 1512 1512 1512 1512 1512 1511 1512 1512 1512 1512 1512 1512 1512 1513 1513 1513 1513 1514 1515 1515 1515 1516 1517 1517 1518 1519 1519 1519 1520 1520 1520 1521 1522 1523 1524 1525 1526 1527
1511 1509 1508 1512 1515 1516 1514 1507 1509 1510 1510 1509 1509 1509 1509 1509 1509 1509 1509 1509 1509 1509 1509 1509 1510 1510 1510 1511 1511 1512 1512 1513 1513 1514 1515 1515 1516 1516 1517 1517 1517 1518 1519 1520 1521 1522 1523 1524 1524
1508 1507 1508 1509 1513 1514 1511 1507 1507 1509 1509 1508 1507 1507 1506 1506 1506 1505 1505 1506 1506 1506 1507 1507 1507 1507 1507 1508 1508 1509 1509 1510 1510 1511 1512 1513 1513 1514 1514 1515 1515 1515 1516 1517 1518 1519 1520 1521 1522
1509 1508 1507 1509 1513 1513 1508 1505 1504 1506 1506 1505 1505 1504 1504 1503 1503 1503 1503 1503 1503 1503 1503 1503 1504 1504 1504 1504 1505 1505 1505 1506 1507 1508 1509 1510 1510 1511 1511 1512 1513 1513 1513 1513 1515 1515 1517 1519 1520
1510 1508 1506 1509 1513 1512 1507 1503 1501 1502 1502 1502 1502 1502 1501 1501 1500 1500 1500 1500 1500 1500 1500 1500 1500 1501 1501 1501 1502 1502 1503 1503 1504 1505 1506 1506 1507 1508 1508 1509 1509 1510 1510 1510 1511 1512 1513 1515 1517
1509 1507 1507 1509 1511 1510 1508 1497 1495 1498 1500 1500 1500 1499 1499 1499 1498 1497 1497 1497 1497 1497 1497 1497 1497 1497 1498 1499 1499 1499 1500 1500 1501 1502 1502 1503 1504 1504 1505 1506 1506 1507 1507 1508 1508 1509 1510 1511 1514
1506 1509 1510 1511 1508 1503 1507 1494 1488 1493 1496 1496 1496 1496 1496 1496 1496 1495 1494 1494 1494 1494 1494 1494 1494 1494 1495 1495 1495 1496 1496 1497 1497 1498 1499 1500 1500 1501 1502 1502 1503 1504 1504 1505 1505 1506 1508 1509 1510
1507 1510 1511 1510 1508 1507 1505 1503 1486 1492 1492 1492 1493 1494 1494 1494 1493 1492 1492 1491 1491 1491 1491 1490 1490 1491 1491 1492 1492 1492 1493 1494 1494 1495 1496 1496 1497 1497 1498 1499 1500 1500 1501 1501 1502 1503 1505 1506 1507
1511 1511 1511 1511 1508 1506 1499 1499 1485 1487 1489 1490 1492 1492 1492 1492 1491 1490 1490 1489 1488 1488 1487 1487 1487 1487 1488 1488 1488 1489 1490 1491 1491 1491 1492 1492 1493 1494 1494 1495 1496 1496 1497 1498 1499 1499 1501 1502 1504
1508 1506 1503 1502 1500 1493 1501 1499 1489 1488 1491 1491 1492 1491 1491 1490 1489 1488 1487 1486 1486 1485 1484 1484 1484 1484 1484 1484 1485 1485 1486 1487 1487 1488 1488 1489 1489 1489 1490 1491 1492 1493 1494 1495 1495 1496 1497 1499 1500
1505 1502 1499 1496 1489 1487 1502 1495 1487 1491 1492 1492 1491 1491 1490 1489 1488 1487 1486 1485 1484 1483 1482 1481 1481 1480 1480 1480 1481 1481 1482 1482 1483 1484 1484 1484 1485 1486 1487 1487 1488 1489 1490 1491 1492 1492 1494 1495 1496
1504 1502 1503 1502 1506 1500 1490 1489 1489 1489 1489 1490 1490 1489 1489 1488 1487 1486 1484 1483 1482 1481 1480 1479 1478 1477 1477 1477 1477 1478 1478 1478 1479 1480 1480 1481 1481 1482 1483 1483 1483 1485 1486 1488 1488 1488 1490 1491 1492
1504 1504 1506 1503 1498 1488 1482 1485 1480 1484 1485 1487 1488 1488 1487 1486 1486 1484 1483 1481 1480 1479 1478 1477 1476 1474 1474 1474 1473 1473 1474 1474 1475 1475 1476 1476 1477 1477 1478 1479 1480 1482 1483 1484 1484 1485 1486 1487 1488
1504 1506 1502 1500 1498 1489 1481 1478 1479 1482 1484 1485 1486 1486 1486 1485 1484 1483 1481 1480 1479 1477 1476 1474 1473 1472 1471 1470 1470 1469 1469 1469 1470 1470 1471 1472 1473 1473 1474 1475 1477 1478 1479 1480 1480 1481 1482 1483 1485
1500 1498 1499 1497 1499 1497 1485 1481 1482 1483 1484 1485 1485 1485 1485 1484 1483 1482 1480 1479 1477 1476 1474 1472 1471 1469 1468 1467 1466 1465 1465 1465 1465 1466 1466 1468 1468 1469 1470 1471 1472 1474 1475 1476 1476 1477 1479 1480 1480